EW2348 Weather Reports


Display with metric or nautical units.
time (UTC)temp
F
wind
direction
speed
MPH
gust
MPH
rain 1hr
in
rain 24hr
in
rain mn
in
humidity
%
barometer
mb
20140919231017 82 76 0.0 2.0 0.00 0.00 0.00 45 1018.7
20140919230017 84 307 0.0 2.0 0.00 0.00 0.00 42 1018.6
20140919225017 82 270 0.0 1.0 0.00 0.00 0.00 45 1018.7
20140919221016 83 140 0.0 4.0 0.00 0.00 0.00 42 1018.5
20140919214016 83 43 2.0 5.0 0.00 0.00 0.00 39 1018.3
20140919212016 84 90 1.0 5.0 0.00 0.00 0.00 40 1018.5
20140919210015 86 105 2.0 3.0 0.00 0.00 0.00 37 1018.9
20140919205015 84 93 2.0 6.0 0.00 0.00 0.00 35 1018.9
20140919204015 87 345 2.0 4.0 0.00 0.00 0.00 35 1018.8
20140919203015 86 308 2.0 4.0 0.00 0.00 0.00 37 1019.0
20140919193014 82 15 3.0 6.0 0.00 0.00 0.00 39 1019.4
20140919191013 82 94 2.0 4.0 0.00 0.00 0.00 37 1019.5
20140919190014 81 328 2.0 8.0 0.00 0.00 0.00 40 1019.9
20140919185013 82 14 5.0 8.0 0.00 0.00 0.00 38 1020.0
20140919183013 81 349 3.0 6.0 0.00 0.00 0.00 39 1020.1
20140919181013 80 11 4.0 9.0 0.00 0.00 0.00 41 1020.3
20140919180012 79 76 2.0 7.0 0.00 0.00 0.00 44 1020.6
20140919175012 79 2 2.0 7.0 0.00 0.00 0.00 44 1020.7
20140919171012 77 352 4.0 10.0 0.00 0.00 0.00 43 1021.0
20140919165013 76 356 2.0 8.0 0.00 0.00 0.00 44 1021.3
20140919164012 76 347 2.0 10.0 0.00 0.00 0.00 46 1021.4
20140919163012 76 355 4.0 9.0 0.00 0.00 0.00 45 1021.5
20140919162011 74 4 2.0 11.0 0.00 0.00 0.00 49 1021.5
20140919160011 73 331 5.0 9.0 0.00 0.00 0.00 48 1021.6
20140919155010 74 4 2.0 8.0 0.00 0.00 0.00 52 1021.5
20140919154011 74 341 4.0 11.0 0.00 0.00 0.00 51 1021.4
20140919152010 73 8 2.0 11.0 0.00 0.00 0.00 54 1021.7
20140919151010 73 33 2.0 7.0 0.00 0.00 0.00 54 1021.8
20140919150010 72 31 2.0 10.0 0.00 0.00 0.00 59 1021.7
20140919145010 72 8 1.0 5.0 0.00 0.00 0.00 59 1021.8
20140919144009 71 340 2.0 6.0 0.00 0.00 0.00 60 1021.8
20140919142010 70 339 2.0 5.0 0.00 0.00 0.00 64 1021.8
20140919141009 69 353 0.0 4.0 0.00 0.00 0.00 66 1021.9
20140919135009 67 347 2.0 5.0 0.00 0.00 0.00 67 1021.6
20140919125008 59 323 1.0 4.0 0.00 0.00 0.00 82 1021.6
20140919122007 53 310 1.0 5.0 0.00 0.00 0.00 82 1021.6
20140919120007 53 345 2.0 4.0 0.00 0.00 0.00 80 1021.4
20140919115007 52 340 2.0 4.0 0.00 0.00 0.00 79 1021.3
20140919114007 52 331 2.0 7.0 0.00 0.00 0.00 80 1021.3
20140919113006 52 345 0.0 5.0 0.00 0.00 0.00 80 1021.0
20140919112007 51 346 2.0 4.0 0.00 0.00 0.00 82 1020.9
20140919111006 52 335 1.0 4.0 0.00 0.00 0.00 84 1020.9
20140919110006 52 349 2.0 6.0 0.00 0.00 0.00 84 1020.7
20140919105006 53 338 0.0 6.0 0.00 0.00 0.00 84 1020.8
20140919104006 53 353 2.0 9.0 0.00 0.00 0.00 84 1020.6
20140919101005 52 335 1.0 4.0 0.00 0.00 0.00 85 1020.7
20140919100006 53 338 2.0 8.0 0.00 0.00 0.00 85 1020.8
20140919095005 53 325 2.0 7.0 0.00 0.00 0.00 86 1020.7
20140919094005 53 321 2.0 7.0 0.00 0.00 0.00 86 1020.8
20140919093005 53 319 1.0 5.0 0.00 0.00 0.00 86 1020.8
20140919091005 53 328 2.0 5.0 0.00 0.00 0.00 86 1020.5
20140919090005 53 314 2.0 5.0 0.00 0.00 0.00 86 1020.6
20140919083004 53 313 2.0 5.0 0.00 0.00 0.00 87 1020.4
20140919082004 54 309 2.0 6.0 0.00 0.00 0.00 87 1020.5
20140919080003 54 317 2.0 5.0 0.00 0.00 0.00 86 1020.5
20140919075004 54 315 2.0 4.0 0.00 0.00 0.00 85 1020.5
20140919074025 54 328 2.0 8.0 0.00 0.00 0.00 85 1020.5
20140919070024 55 320 2.0 7.0 0.00 0.00 0.00 85 1020.6
20140919063024 56 309 1.0 4.0 0.00 0.00 0.00 81 1020.8
20140919062024 56 316 2.0 4.0 0.00 0.00 0.00 80 1020.7
20140919061024 57 347 2.0 6.0 0.00 0.00 0.00 78 1020.7
20140919055023 56 328 1.0 4.0 0.00 0.00 0.00 80 1020.3
20140919052023 56 305 2.0 5.0 0.00 0.00 0.00 80 1020.2
20140919051022 56 288 0.0 4.0 0.00 0.00 0.00 80 1020.3
20140919044022 56 309 0.0 2.0 0.00 0.00 0.00 78 1020.0
20140919043022 57 302 0.0 2.0 0.00 0.00 0.00 78 1020.1
20140919042021 57 304 1.0 2.0 0.00 0.00 0.00 78 1020.0
20140919035022 58 198 0.0 4.0 0.00 0.00 0.00 75 1020.1
20140919033021 59 323 0.0 3.0 0.00 0.00 0.00 72 1020.0
20140919032021 59 319 7.0 3.0 0.00 0.00 0.00 73 1020.0
20140919031021 60 11 1.0 4.0 0.00 0.00 0.00 71 1020.0
20140919023020 61 359 2.0 4.0 0.00 0.00 0.00 71 1019.7
20140919022020 61 346 2.0 6.0 0.00 0.00 0.00 71 1019.5
20140919021019 60 317 2.0 5.0 0.00 0.00 0.00 72 1019.4
20140919020020 60 330 2.0 7.0 0.00 0.00 0.00 72 1019.2
20140919015020 60 311 0.0 4.0 0.00 0.00 0.00 73 1019.2
20140919013019 60 325 1.0 2.0 0.00 0.00 0.00 72 1019.0
20140919010019 62 291 2.0 3.0 0.00 0.00 0.00 71 1018.6
20140919005019 62 317 0.0 4.0 0.00 0.00 0.00 69 1018.4
20140919004018 63 309 1.0 4.0 0.00 0.00 0.00 67 1018.3
20140919001018 64 314 1.0 4.0 0.00 0.00 0.00 63 1017.9
20140919000018 65 309 2.0 4.0 0.00 0.00 0.00 61 1017.9